Location: Aufkirchen
(47.9603°N, 11.3653°E)
Time: 04:39:42
(UTC+01:00)

Vanguard 3 - Pass Details

Date: 30 November 2020
Orbit: 508 x 3262 km, 33.3° (Epoch: 23 January)

Event Time Altitude Azimuth Distance (km) Brightness Sun altitude
Rises 00:12:29 0° 243° (WSW) 2,852 - -63.7°
Reaches altitude 10° 00:15:37 10° 214° (SW) 2,206 - -63.6°
Maximum altitude 00:18:06 14° 185° (S) 2,207 - -63.5°
Drops below altitude 10° 00:21:05 10° 157° (SSE) 2,779 - -63.5°
Sets 00:26:07 0° 134° (SE) 4,338 - -63.3°
